Weather History for Cheboygan, MI

Change the Weather History Date:

Sunday, January 12, 2014

  Actual Average (KPLN) Record (KPLN)
Temperature  
Mean Temperature 35 °F -  
Max Temperature 39 °F 25 °F 52 °F (2013)
Min Temperature 31 °F 8 °F -21 °F (1966)
Degree Days  
Heating Degree Days 30    
Moisture  
Dew Point 26 °F    
Average Humidity 73    
Maximum Humidity 89    
Minimum Humidity 56    
Precipitation  
Precipitation 0.00 in - - ()
Sea Level Pressure  
Sea Level Pressure 29.60 in    
Wind  
Wind Speed 10 mph (SW)    
Max Wind Speed 16 mph    
Max Gust Speed 22 mph    
Visibility 10 miles    
Events      
Averages and records for this station are not official NWS values.
T = Trace of Precipitation, MM = Missing Value Source: NWS Daily Summary

Daily Weather History Graph

Daily Weather History Graph

Search for Another Location

Airport:

Trip Planner

Search our weather history database for the weather conditions in past years. The results will help you decide how hot, cold, wet, or windy it might be!

Date:

Astronomy

Jan. 12, 2014 Rise Set
Actual Time 8:16 AM EST 5:16 PM EST
Civil Twilight 7:42 AM EST 5:50 PM EST
Nautical Twilight 7:05 AM EST 6:27 PM EST
Astronomical Twilight 6:30 AM EST 7:03 PM EST
Moon 2:45 PM EST (1/12) 5:12 AM EST (1/12)
Length of Visible Light 10h 07m
Length of Day
9h 00m
Waxing Gibbous, 89% of the Moon is Illuminated
Jan 12
Waxing Gibbous
Jan 15
Full
Jan 24
Last Quarter
Jan 30
New
Feb 6
First Quarter

Hourly Weather History & Observations

Time (EST) Temp. Windchill Dew Point Humidity Pressure Visibility Wind Dir Wind Speed Gust Speed Precip Events Conditions
12:15 AM 32.0 °F 21.2 °F 29.1 °F 89% 29.50 in 10.0 mi West 16.1 mph 21.9 mph N/A   Overcast
12:35 AM 32.0 °F 22.5 °F 29.1 °F 89% 29.51 in 10.0 mi West 12.7 mph 20.7 mph N/A   Overcast
12:55 AM 32.0 °F 22.5 °F 29.1 °F 89% 29.51 in 10.0 mi West 12.7 mph 19.6 mph N/A   Overcast
1:15 AM 32.0 °F 23.6 °F 28.9 °F 88% 29.52 in 10.0 mi West 10.4 mph 17.3 mph N/A   Overcast
1:35 AM 32.0 °F 23.0 °F 28.4 °F 87% 29.52 in 10.0 mi West 11.5 mph 18.4 mph N/A   Overcast
1:55 AM 32.0 °F 23.0 °F 28.4 °F 87% 29.53 in 10.0 mi West 11.5 mph 17.3 mph N/A   Overcast
2:15 AM 32.0 °F 24.2 °F 28.2 °F 86% 29.54 in 10.0 mi West 9.2 mph 19.6 mph N/A   Overcast
2:35 AM 32.0 °F 23.6 °F 27.9 °F 85% 29.55 in 10.0 mi West 10.4 mph 16.1 mph N/A   Overcast
2:55 AM 32.0 °F 22.5 °F 27.5 °F 83% 29.57 in 10.0 mi West 12.7 mph 18.4 mph N/A   Overcast
3:15 AM 32.0 °F 22.1 °F 27.5 °F 83% 29.58 in 10.0 mi West 13.8 mph 18.4 mph N/A   Overcast
3:35 AM 32.0 °F 22.5 °F 27.3 °F 83% 29.59 in 10.0 mi West 12.7 mph 17.3 mph N/A   Overcast
3:55 AM 32.0 °F 23.0 °F 27.3 °F 83% 29.60 in 10.0 mi West 11.5 mph 16.1 mph N/A   Overcast
4:15 AM 32.0 °F 24.2 °F 27.0 °F 82% 29.60 in 10.0 mi West 9.2 mph 18.4 mph N/A   Overcast
4:35 AM 32.0 °F 23.0 °F 26.2 °F 79% 29.60 in 10.0 mi West 11.5 mph - N/A   Overcast
4:55 AM 32.0 °F 24.2 °F 26.2 °F 79% 29.61 in 10.0 mi West 9.2 mph - N/A   Overcast
5:15 AM 31.8 °F 27.3 °F 26.8 °F 82% 29.63 in 10.0 mi West 4.6 mph - N/A   Overcast
5:35 AM 31.8 °F 24.6 °F 27.1 °F 83% 29.64 in 10.0 mi West 8.1 mph - N/A   Overcast
5:55 AM 31.8 °F 25.4 °F 27.1 °F 83% 29.64 in 10.0 mi WSW 6.9 mph - N/A   Overcast
6:01 AM 31.8 °F 24.6 °F 27.1 °F 83% 29.64 in 10.0 mi WSW 8.1 mph - N/A   Overcast
6:39 AM 32.0 °F 24.8 °F 26.6 °F 80% 29.65 in 10.0 mi WSW 8.1 mph - N/A   Overcast
6:58 AM 32.0 °F 26.4 °F 24.8 °F 75% 29.65 in 10.0 mi WSW 5.8 mph - N/A   Overcast
7:18 AM 32.0 °F 28.7 °F 24.8 °F 75% 29.65 in 10.0 mi WSW 3.5 mph - N/A   Overcast
7:38 AM 32.0 °F 26.4 °F 24.8 °F 75% 29.65 in 10.0 mi WSW 5.8 mph - N/A   Overcast
7:59 AM 32.0 °F 27.5 °F 24.8 °F 75% 29.66 in 10.0 mi WSW 4.6 mph - N/A   Overcast
8:18 AM 32.0 °F 26.4 °F 24.8 °F 75% 29.67 in 10.0 mi WSW 5.8 mph - N/A   Overcast
9:00 AM 32.0 °F 28.7 °F 24.8 °F 75% 29.69 in 10.0 mi SW 3.5 mph - N/A   Mostly Cloudy
9:18 AM 32.0 °F 26.4 °F 26.6 °F 80% 29.70 in 10.0 mi SW 5.8 mph - N/A   Overcast
9:38 AM 32.0 °F 26.4 °F 26.6 °F 80% 29.71 in 10.0 mi SW 5.8 mph - N/A   Mostly Cloudy
10:32 AM 32.0 °F 24.2 °F 26.6 °F 80% 29.70 in 10.0 mi SSW 9.2 mph - N/A   Mostly Cloudy
10:58 AM 32.0 °F 24.2 °F 26.6 °F 80% 29.70 in 10.0 mi SSW 9.2 mph - N/A   Overcast
11:18 AM 32.0 °F 22.5 °F 26.6 °F 80% 29.71 in 10.0 mi SW 12.7 mph 18.4 mph N/A   Overcast
11:38 AM 32.0 °F 22.5 °F 26.6 °F 80% 29.71 in 10.0 mi SSW 12.7 mph 18.4 mph N/A   Overcast
11:58 AM 33.8 °F 24.3 °F 26.6 °F 75% 29.70 in 10.0 mi SSW 13.8 mph 19.6 mph N/A   Overcast
12:18 PM 33.8 °F 26.4 °F 26.6 °F 75% 29.69 in 10.0 mi SSW 9.2 mph 18.4 mph N/A   Scattered Clouds
1:14 PM 33.8 °F 28.6 °F 26.6 °F 75% 29.67 in 10.0 mi South 5.8 mph 16.1 mph N/A   Clear
1:22 PM 33.8 °F 26.4 °F 26.6 °F 75% 29.66 in 10.0 mi South 9.2 mph - N/A   Clear
1:38 PM 33.8 °F 29.6 °F 26.6 °F 75% 29.65 in 10.0 mi South 4.6 mph - N/A   Clear
1:58 PM 35.6 °F - 26.6 °F 70% 29.64 in 10.0 mi Calm Calm - N/A   Clear
2:18 PM 35.6 °F 31.7 °F 26.6 °F 70% 29.63 in 10.0 mi SSE 4.6 mph - N/A   Clear
3:00 PM 39.2 °F 34.2 °F 26.6 °F 61% 29.62 in 10.0 mi SSE 6.9 mph - N/A   Scattered Clouds
3:21 PM 39.2 °F 33.6 °F 26.6 °F 61% 29.61 in 10.0 mi SSE 8.1 mph - N/A   Clear
3:58 PM 39.2 °F 33.0 °F 26.6 °F 61% 29.58 in 10.0 mi SSE 9.2 mph - N/A   Clear
4:20 PM 39.2 °F 33.6 °F 26.6 °F 61% 29.57 in 10.0 mi SSE 8.1 mph - N/A   Clear
4:58 PM 37.4 °F 34.9 °F 24.8 °F 60% 29.55 in 10.0 mi SSE 3.5 mph - N/A   Clear
5:22 PM 37.4 °F 32.8 °F 24.8 °F 60% 29.55 in 10.0 mi SE 5.8 mph - N/A   Clear
5:41 PM 37.4 °F 33.8 °F 24.8 °F 60% 29.54 in 10.0 mi SSE 4.6 mph - N/A   Clear
5:58 PM 35.6 °F 32.8 °F 24.8 °F 65% 29.56 in 10.0 mi South 3.5 mph - N/A   Clear
6:42 PM 35.6 °F 32.8 °F 24.8 °F 65% 29.56 in 10.0 mi SSE 3.5 mph - N/A   Clear
6:58 PM 35.6 °F 31.7 °F 24.8 °F 65% 29.55 in 10.0 mi South 4.6 mph - N/A   Clear
7:18 PM 37.4 °F 31.4 °F 24.8 °F 60% 29.55 in 10.0 mi South 8.1 mph - N/A   Clear
7:40 PM 37.4 °F 33.8 °F 24.8 °F 60% 29.55 in 10.0 mi South 4.6 mph - N/A   Clear
7:58 PM 37.4 °F 33.8 °F 24.8 °F 60% 29.55 in 10.0 mi South 4.6 mph - N/A   Clear
8:23 PM 37.4 °F 34.9 °F 23.0 °F 56% 29.54 in 10.0 mi South 3.5 mph - N/A   Clear
8:43 PM 37.4 °F 34.9 °F 24.8 °F 60% 29.54 in 10.0 mi South 3.5 mph - N/A   Clear
9:50 PM 39.2 °F 34.2 °F 24.8 °F 56% 29.54 in 10.0 mi SSW 6.9 mph - N/A   Clear
9:58 PM 39.2 °F 35.0 °F 24.8 °F 56% 29.54 in 10.0 mi SSW 5.8 mph - N/A   Clear
10:18 PM 39.2 °F 35.0 °F 24.8 °F 56% 29.55 in 10.0 mi South 5.8 mph - N/A   Clear
10:38 PM 39.2 °F 35.0 °F 26.6 °F 61% 29.54 in 10.0 mi SSW 5.8 mph - N/A   Clear
11:03 PM 39.2 °F 32.5 °F 26.6 °F 61% 29.53 in 10.0 mi SSW 10.4 mph - N/A   Clear
11:22 PM 39.2 °F 33.0 °F 28.4 °F 65% 29.53 in 10.0 mi SSW 9.2 mph - N/A   Clear
11:38 PM 39.2 °F 33.6 °F 28.4 °F 65% 29.53 in 10.0 mi SSW 8.1 mph - N/A   Clear